Location: Claremont
(35.7250°N, 81.1500°W)
Time: 20:11:28
(UTC-04:00)

Daily predictions for brighter satellites

Satellite Brightness Start Highest point End
(mag) Time Altitude Azimuth Time Altitude Azimuth Time Altitude Azimuth
ATLAS CENTAUR R/B 3.2 19:26:22 10° SSW 19:30:17 54° ESE 19:41:28 10° NE
Meteor 2-5 Rocket 3.7 19:31:57 10° N 19:37:36 86° E 19:43:08 10° S
Meteor 1-24 Rocket 3.9 19:32:40 10° N 19:38:05 47° ENE 19:43:18 10° SSE
Cosmos 1707 2.6 19:36:33 10° N 19:40:25 77° E 19:44:14 10° S
Cosmos 1812 Rocket 4.3 19:36:21 10° SSW 19:40:35 58° W 19:44:53 10° N
Abrixas rocket 4.4 19:38:09 10° WNW 19:40:59 25° SW 19:43:48 10° SSE
SAR-Lupe-4 3.7 19:40:53 10° SSE 19:44:22 53° ENE 19:47:51 10° N
Cosmos 1464 Rocket 4.3 19:39:24 10° SSE 19:45:18 45° E 19:51:10 10° NNE
SJ-6B 3.1 19:41:56 10° SSE 19:45:43 46° ENE 19:49:35 10° N
FREGAT/IRIS 3.4 19:44:53 10° SE 19:47:40 31° ENE 19:50:28 10° N
Milstar 3 4.4 19:40:11 10° WSW 19:49:29 62° S 20:06:29 12° E
Cosmos 921 Rocket 4.2 19:45:47 10° NNW 19:49:48 45° WSW 19:53:45 10° S
Cosmos 1437 2.7 19:48:48 10° N 19:52:04 72° E 19:55:19 10° SSE
Cosmos 1758 4.3 19:51:21 10° SSE 19:54:47 27° E 19:58:14 10° NNE
TIMED 4.5 19:53:46 10° NNW 19:58:08 70° ENE 20:02:29 10° SSE
Cosmos 2333 Rocket 4.2 19:53:05 10° WSW 19:58:11 32° WNW 20:03:20 10° N
Spot 2 Rocket 3.8 19:56:05 10° SE 20:00:48 43° ENE 20:05:34 10° N
NOSS 3-2 (C) 3.4 19:55:58 10° SSW 20:01:56 74° ESE 20:08:24 10° NE
CENTAUR R/B 3.7 19:58:44 10° SE 20:02:18 16° ESE 20:05:41 11° ENE
GPS 2-04 Rocket1 3.9 20:01:58 10° SSW 20:04:45 22° SSE 20:06:26 16° ESE
Cosmos 1076 Rocket 3.8 20:00:57 10° N 20:05:07 44° E 20:09:15 10° SSE
ASTEX 1 4.5 20:03:10 10° NE 20:07:00 23° E 20:10:48 10° SE
Cosmos-2242 3.6 20:03:08 10° SSE 20:07:04 34° E 20:11:03 10° NNE
Cosmos 2056 Rocket 3.6 20:02:02 10° NNW 20:07:30 86° ENE 20:12:54 10° SSE
Helios 1B rocket 2.5 20:03:40 10° NNE 20:07:41 52° E 20:11:41 10° S
Cosmos 1484 Rocket 4.2 20:04:49 10° S 20:08:24 40° W 20:12:04 10° NNW
SL-8 R/B 4.3 20:04:04 10° SSW 20:08:25 36° SE 20:11:40 16° ENE
NOAA 12 4.1 20:09:52 10° SSE 20:15:06 87° WSW 20:20:25 10° NNW
In-Cosmos 22 4.4 20:10:15 10° N 20:15:54 52° ENE 20:21:28 10° SSE
Atlas Centaur 2 3.7 20:11:49 10° W 20:19:58 49° SSW 20:26:10 16° SE
ASTRO E2 3.3 20:17:43 10° WSW 20:21:36 45° S 20:23:33 25° ESE
Cosmos 1408 Rocket 3.5 20:18:38 10° N 20:22:58 63° E 20:27:14 10° SSE
ATLAS CENTAUR R/B 2.6 20:26:15 10° NW 20:30:04 39° WSW 20:33:37 10° S
Abrixas 2.8 20:27:21 10° SSW 20:30:12 42° SE 20:30:14 42° SE
Resurs 01 Rocket 1.6 20:26:34 10° SSE 20:31:01 88° ENE 20:35:29 10° NNW
HJ-1C 3.4 20:28:25 10° S 20:31:46 79° WSW 20:35:08 10° NNW
ATLAS 5 CENTAUR R/B 2.0 20:27:14 10° SW 20:31:56 73° WNW 20:37:01 10° NNE
Resurs 1-3 3.5 20:28:15 10° SSE 20:32:37 70° ENE 20:36:59 10° N
USA 215 3.8 20:34:16 10° NE 20:40:39 58° NW 20:47:01 10° WSW
BREEZE-M DEB (TANK) 4.4 20:21:03 10° NW 20:43:06 83° SW 20:46:40 26° SE
CZ-2D R/B 3.5 20:43:00 46° E 20:43:12 46° ENE 20:46:57 10° N
SL-16 R/B 3.7 20:38:05 10° SW 20:43:19 37° WNW 20:48:35 10° N
Meteor 1-29 3.8 20:42:35 10° N 20:46:02 53° WNW 20:49:25 10° SSW
Gbstr 26 Del rocket 3.8 20:44:57 10° SSW 20:48:32 36° SE 20:48:32 36° SE
Cosmos 1953 2.9 20:45:34 10° SSW 20:49:29 57° W 20:53:25 10° N
Cosmos 1743 Rocket 3.5 20:46:09 10° N 20:50:33 59° E 20:51:27 48° SE
ISS -1.6 20:48:03 10° SSW 20:49:30 23° SSW 20:49:30 23° SSW
Helios 1A 3.8 20:51:20 10° S 20:55:24 51° W 20:59:30 10° NNW
Nadezhda 4 Rocket 3.9 20:52:18 10° N 20:58:36 78° E 21:04:03 14° S
OAO 1 Rocket 4.4 20:53:25 10° W 20:58:48 82° S 21:00:06 53° E
SeaSat 1 2.3 20:55:59 10° NNE 21:00:55 71° ESE 21:05:50 10° SSW
H-2A R/B 2.6 21:01:10 78° NE 21:01:10 78° NE 21:04:58 10° N
Cosmos 1544 3.7 20:59:36 10° SSW 21:03:16 56° W 21:06:58 10° N
GP-B 4.4 20:59:11 10° NNE 21:01:21 26° NNE 21:01:21 26° NNE
Cosmos 1452 Rocket 3.7 20:58:55 10° NNW 21:04:09 68° WSW 21:07:30 22° S
Cosmos 1092 Rocket 3.9 20:58:26 10° N 21:04:35 62° E 21:06:37 41° SE
CZ-4B DEB 3.6 21:06:22 50° WNW 21:06:22 50° WNW 21:09:05 10° NNW
ALOS 2.4 21:04:18 24° S 21:07:03 71° WSW 21:11:44 10° NNW
FENGYUN 3A 3.8 21:06:43 19° S 21:10:39 73° WSW 21:16:03 10° NNW
SEDSat Delta rocket 4.2 21:04:01 10° W 21:10:41 61° S 21:12:12 49° SE
OAO 3 Rocket 3.0 21:08:31 10° W 21:13:19 83° S 21:13:22 83° S
Cosmos 1634 Rocket 3.8 21:09:34 10° S 21:15:46 68° E 21:21:57 10° NNE
Cosmos 1943 3.9 21:21:38 10° SSW 21:33:10 - NNE 21:25:09 40° S
Cosmos 1420 Rocket 4.0 21:21:57 10° NNW 21:27:16 78° WSW 21:27:35 74° SW
Cosmos 2369 Rocket 2.9 21:24:53 10° N 21:28:55 40° NNE 21:28:55 40° NNE
Cosmos 1943 Rocket 4.1 21:33:25 10° N 21:35:15 17° NNE 21:35:15 17° NNE
BREEZE-M DEB (TANK) 4.4 21:20:02 10° NW 21:44:57 63° SW 21:46:52 48° S
CENTAUR R/B 2.7 21:46:04 10° SW 21:51:59 68° WNW 21:53:12 56° N
Atlas Centaur 2 4.3 22:02:41 10° W 22:08:50 24° SSW 22:08:50 24° SSW
